[[[{"header":{"parameterUnit":"kt","parameterCategory":2,"dx":1,"dy":1,"la1":30.253999710083008,"la2":30.299108505249023,"lo1":-89.0895004272461,"lo2":-89.04439544677734,"nx":28,"ny":28,"refTime":"2022-09-18T21:00:00:Z","depth":0,"parameterNumber":1,"parameterNumberName":"U-component_of_WINDS"},"data":[-1.0292,-1.0447,-1.0555,-1.0785,-1.0922,-1.11,-1.12,-1.1341,-1.1483,-1.1714,-1.1868,-1.2,-1.2192,-1.2407,-1.2585,-1.2642,-1.271,-1.2683,-1.2755,-1.2768,-1.2778,-1.2788,-1.2756,-1.2695,-1.2695,-1.2726,-1.2726,-1.2727,-1.0287,-1.0422,-1.0574,-1.0797,-1.0931,-1.1021,-1.1209,-1.1317,-1.1477,-1.1654,-1.1812,-1.2027,-1.2214,-1.2422,-1.2623,-1.2705,-1.2764,-1.2752,-1.275,-1.278,-1.2797,-1.2762,-1.2701,-1.2701,-1.2701,-1.2701,-1.2701,-1.2701,-1.0309,-1.0397,-1.0595,-1.0764,-1.0908,-1.1058,-1.1165,-1.1323,-1.148,-1.1698,-1.1805,-1.1991,-1.2196,-1.2497,-1.2629,-1.2781,-1.2817,-1.2842,-1.285,-1.2854,-1.2842,-1.2782,-1.2821,-1.2822,-1.2823,-1.2823,-1.2824,0,-1.0359,-1.0444,-1.06,-1.0787,-1.0918,-1.1076,-1.1242,-1.1312,-1.1541,-1.1662,-1.1847,-1.1975,-1.2229,-1.2422,-1.2638,-1.2774,-1.289,-1.2915,-1.2933,-1.2884,-1.2811,-1.2854,-1.2878,-1.2914,-1.2915,-1.2916,-1.2917,-1.2918,-1.0391,-1.0482,-1.0746,-1.0841,-1.0959,-1.111,-1.1225,-1.142,-1.1534,-1.1771,-1.1845,-1.2039,-1.2205,-1.249,-1.2686,-1.2879,-1.2939,-1.294,-1.297,-1.2916,-1.2943,-1.2936,-1.2948,-1.2931,-1.2929,-1.2928,-1.2927,0,-1.0399,-1.0581,-1.076,-1.1016,-1.1083,-1.1171,-1.1394,-1.1495,-1.1641,-1.1803,-1.1852,-1.2085,-1.2268,-1.2465,-1.2717,-1.2815,-1.2972,-1.3023,-1.2901,-1.2923,-1.2945,-1.2941,-1.2981,-1.2998,-1.3061,-1.306,-1.3059,0,-1.05,-1.0615,-1.0881,-1.0975,-1.111,-1.1303,-1.1433,-1.1572,-1.1751,-1.188,-1.204,-1.2159,-1.2393,-1.2542,-1.2687,-1.285,-1.2898,-1.2984,-1.3022,-1.2971,-1.296,-1.3041,-1.3045,-1.3101,-1.3101,-1.31,-1.31,0,-1.0496,-1.0774,-1.0928,-1.1022,-1.131,-1.1379,-1.1504,-1.1707,-1.182,-1.1999,-1.2075,-1.2271,-1.2379,-1.253,-1.2714,-1.2727,-1.2918,-1.2975,-1.3007,-1.3003,-1.3043,-1.3038,-1.302,-1.31,-1.3099,-1.3099,-1.3099,0,-1.0609,-1.0778,-1.0974,-1.1218,-1.1285,-1.1388,-1.1591,-1.1725,-1.1929,-1.2026,-1.217,-1.2303,-1.246,-1.2501,-1.2723,-1.2688,-1.2786,-1.2884,-1.289,-1.2919,-1.2961,-1.2928,-1.2888,-1.2893,-1.2941,-1.294,-1.2939,0,-1.0554,-1.0801,-1.097,-1.1154,-1.1296,-1.1466,-1.1586,-1.176,-1.19,-1.2045,-1.2203,-1.2368,-1.2441,-1.2521,-1.2604,-1.2776,-1.2821,-1.2775,-1.2991,-1.2996,-1.2931,-1.2896,-1.2842,-1.2873,-1.2925,-1.2926,-1.2927,0,-1.0537,-1.0884,-1.0905,-1.1021,-1.1281,-1.1403,-1.1539,-1.1745,-1.1832,-1.2012,-1.2136,-1.2374,-1.244,-1.257,-1.2702,-1.2778,-1.2796,-1.284,-1.2849,-1.2827,-1.2934,-1.2881,-1.2885,-1.2868,-1.287,-1.2872,-1.2916,0,-1.0668,-1.0817,-1.0881,-1.1131,-1.1256,-1.1383,-1.1589,-1.1694,-1.1805,-1.1951,-1.2135,-1.2337,-1.2552,-1.2609,-1.2721,-1.2831,-1.2846,-1.2915,-1.2974,-1.2947,-1.2968,-1.2976,-1.2926,-1.2929,-1.2932,-1.2934,0,0,-1.0573,-1.079,-1.0973,-1.1112,-1.1228,-1.1406,-1.1523,-1.1659,-1.193,-1.2009,-1.2041,-1.2406,-1.2569,-1.2774,-1.2782,-1.2868,-1.2909,-1.2911,-1.2958,-1.2959,-1.2962,-1.2979,-1.2984,-1.2938,-1.2939,-1.294,-1.2941,0,-1.0664,-1.0816,-1.0928,-1.1075,-1.1299,-1.1448,-1.1473,-1.1731,-1.183,-1.2012,-1.2162,-1.2299,-1.2586,-1.2739,-1.2855,-1.289,-1.2999,-1.294,-1.2888,-1.2975,-1.2973,-1.2973,-1.2989,-1.2991,-1.2947,-1.2947,-1.2946,0,-1.0686,-1.0871,-1.0946,-1.1218,-1.1368,-1.1512,-1.1622,-1.177,-1.1881,-1.2076,-1.2254,-1.2395,-1.2619,-1.2784,-1.2866,-1.29,-1.3068,-1.3053,-1.3043,-1.3058,-1.3154,-1.3152,-1.3149,-1.3177,-1.3177,-1.3177,0,0,-1.0737,-1.0877,-1.114,-1.1253,-1.1337,-1.156,-1.1659,-1.1781,-1.1974,-1.2051,-1.2235,-1.2422,-1.2592,-1.27,-1.2871,-1.3021,-1.3087,-1.3072,-1.3062,-1.3052,-1.3061,-1.3154,-1.3152,-1.3177,-1.3177,-1.3177,0,0,-1.0765,-1.1073,-1.115,-1.1306,-1.1481,-1.1754,-1.1817,-1.1921,-1.2094,-1.2104,-1.2324,-1.2383,-1.2542,-1.2676,-1.2646,-1.2897,-1.295,-1.2962,-1.2803,-1.2793,-1.2783,-1.2749,-1.2793,0,0,0,0,0,-1.0966,-1.1034,-1.11,-1.1157,-1.1505,-1.1715,-1.1762,-1.1941,-1.1974,-1.202,-1.2191,-1.23,-1.2705,-1.2683,-1.274,-1.2773,-1.3173,-1.3173,-1.3174,-1.3006,-1.2993,-1.2981,0,0,0,0,0,0,-1.099,-1.1059,-1.1099,-1.1369,-1.145,-1.1714,-1.181,-1.1862,-1.1974,-1.1991,-1.2263,-1.2309,-1.2469,-1.2667,-1.2715,-1.2743,-1.2777,-1.3173,-1.3173,-1.3174,-1.3002,-1.2991,-1.2981,0,0,0,0,0,-1.101,-1.1066,-1.1575,-1.1371,-1.144,-1.1695,-1.1809,-1.1853,-1.1944,-1.2209,-1.2257,-1.2069,-1.2465,-1.2519,-1.2697,-1.2716,-1.2745,-1.2763,-1.3173,-1.3174,-1.3174,-1.2996,0,0,0,0,0,0,-1.1025,-1.1109,-1.1594,-1.1622,-1.1358,-1.1684,-1.1741,-1.1844,-1.2158,-1.2206,-1.2025,-1.2035,-1.2463,-1.2505,-1.2545,-1.2696,-1.2719,-1.2737,-1.2748,-1.3174,-1.3174,-1.3174,0,0,0,0,0,0,-1.1081,-1.1131,-1.1608,-1.1582,-1.1609,-1.1673,-1.1723,-1.1902,-1.216,-1.1957,-1.1975,-1.2025,-1.2405,-1.2495,-1.2527,-1.28,-1.2699,-1.2716,-1.2728,-1.2735,-1.3174,-1.3174,0,0,0,0,0,0,-1.1105,-1.115,-1.1576,-1.1596,-1.162,-1.195,-1.1835,-1.2183,-1.213,-1.1941,-1.2131,-1.2132,-1.2393,-1.2429,-1.2514,-1.2772,-1.2793,-1.27,-1.2711,-1.2719,-1.2725,0,0,0,0,0,0,0,-1.1126,-1.0787,-1.1426,-1.1608,-1.1629,-1.1881,-1.1889,-1.1897,-1.213,-1.2131,-1.2131,-1.2131,-1.2604,-1.2622,-1.264,-1.275,0,0,-1.2698,-1.2706,0,0,0,0,0,0,0,0,-1.0773,-1.0783,-1.1426,-1.1432,-1.1438,-1.1883,-1.1889,-1.1895,-1.213,-1.2131,-1.2131,-1.2131,-1.2608,-1.2623,-1.2638,0,0,0,0,0,0,0,0,0,0,0,0,0,0,0,-1.1427,-1.1432,0,-1.1884,-1.1889,-1.1894,-1.213,-1.2131,-1.2131,-1.2131,-1.2613,-1.2625,-1.2637,0,0,0,0,0,0,0,0,0,0,0,0,0,0,0,0,0,0,0,0,0,0,0,0,0,0,0,0,0,0,0,0,0,0,0,0,0,0,0,0,0,0,0,0,0,0,0,0,0,0,0,0,0,0,0,0,0,0,0,0,0,0,0,0,0,0,0,0,0]}],[{"header":{"parameterUnit":"kt","parameterCategory":2,"dx":1,"dy":1,"la1":30.253999710083008,"la2":30.299108505249023,"lo1":-89.0895004272461,"lo2":-89.04439544677734,"nx":28,"ny":28,"refTime":"2022-09-18T21:00:00:Z","depth":0,"parameterNumber":2,"parameterNumberName":"V-component_of_WINDS"},"data":[3.3967,3.3866,3.3762,3.3597,3.3474,3.3341,3.3259,3.314,3.3018,3.2842,3.2721,3.2599,3.2429,3.2254,3.2113,3.206,3.2008,3.2051,3.1981,3.1891,3.1871,3.1852,3.1871,3.2042,3.2042,3.209,3.209,3.2091,3.3913,3.3793,3.3675,3.3489,3.3385,3.3281,3.3122,3.3041,3.2923,3.277,3.2645,3.2479,3.2331,3.2141,3.1979,3.1924,3.1862,3.1888,3.1889,3.1864,3.1763,3.1785,3.194,3.194,3.194,3.194,3.194,3.194,3.3786,3.3731,3.3556,3.3426,3.3302,3.3177,3.3102,3.2955,3.2834,3.2657,3.2549,3.241,3.2232,3.1981,3.1868,3.1753,3.1704,3.1695,3.1692,3.1693,3.171,3.1656,3.1719,3.1719,3.1718,3.1717,3.1716,0,3.366,3.3576,3.3454,3.3302,3.32,3.307,3.2931,3.2881,3.2657,3.2566,3.2423,3.2321,3.2118,3.1968,3.179,3.1671,3.1546,3.1521,3.1514,3.1566,3.1636,3.1596,3.1438,3.1519,3.1517,3.1515,3.1514,3.1513,3.3523,3.347,3.3234,3.3163,3.306,3.2947,3.2856,3.2663,3.2575,3.2371,3.2327,3.2175,3.2043,3.1827,3.1647,3.1493,3.143,3.1473,3.1405,3.1458,3.1428,3.1433,3.1426,3.149,3.1493,3.1495,3.1497,0,3.3455,3.328,3.3161,3.293,3.287,3.2822,3.2621,3.2553,3.2415,3.2302,3.2264,3.2045,3.1905,3.1716,3.1517,3.1422,3.1333,3.1276,3.1394,3.1372,3.1391,3.1391,3.1485,3.1487,3.1308,3.131,3.1312,0,3.3268,3.3204,3.2945,3.2885,3.2806,3.2613,3.2539,3.2412,3.2257,3.2165,3.1996,3.1913,3.1685,3.1573,3.1433,3.1326,3.1289,3.1209,3.1172,3.1224,3.1234,3.117,3.1162,3.1093,3.1092,3.1092,3.1092,0,3.3179,3.2964,3.2867,3.2788,3.2533,3.249,3.2381,3.2204,3.2115,3.1969,3.1908,3.1752,3.1665,3.1544,3.1367,3.1328,3.1232,3.1141,3.115,3.1155,3.1137,3.1141,3.1273,3.1091,3.1091,3.1091,3.1091,0,3.2999,3.2861,3.2746,3.2528,3.2479,3.2413,3.2247,3.2147,3.1973,3.1881,3.1763,3.1626,3.1519,3.1443,3.129,3.129,3.1213,3.1127,3.1124,3.1101,3.1021,3.1119,3.1266,3.1273,3.1083,3.1082,3.1082,0,3.2945,3.2782,3.2614,3.2508,3.2406,3.2222,3.2144,3.1995,3.1867,3.1758,3.1613,3.1489,3.1393,3.1327,3.1277,3.1121,3.1122,3.1115,3.0954,3.0951,3.1007,3.114,3.1209,3.1255,3.1079,3.1079,3.1079,0,3.288,3.2572,3.2565,3.2466,3.224,3.2153,3.2064,3.19,3.1837,3.1687,3.1605,3.1427,3.1346,3.124,3.111,3.1068,3.1115,3.0985,3.0977,3.1014,3.1061,3.1127,3.1136,3.1037,3.1037,3.1037,3.1077,0,3.2645,3.254,3.2513,3.2303,3.2207,3.2129,3.1932,3.1855,3.1742,3.1607,3.1483,3.1308,3.1137,3.1097,3.0985,3.0949,3.0924,3.0839,3.0748,3.0839,3.0846,3.0849,3.0754,3.075,3.0747,3.0744,0,0,3.2636,3.2481,3.2298,3.2207,3.2114,3.1923,3.1857,3.1743,3.1518,3.1456,3.1405,3.113,3.0989,3.0858,3.0871,3.0802,3.0776,3.0753,3.0798,3.0805,3.081,3.0822,3.0829,3.0738,3.0737,3.0736,3.0735,0,3.2508,3.2377,3.2316,3.2191,3.1999,3.186,3.1846,3.162,3.153,3.1409,3.1249,3.1151,3.0936,3.0807,3.0714,3.0764,3.0647,3.0727,3.0821,3.0772,3.0784,3.0793,3.0808,3.0817,3.0727,3.0728,3.0728,0,3.2407,3.2244,3.2194,3.1976,3.1847,3.1746,3.1604,3.1503,3.1424,3.1215,3.1097,3.0973,3.0784,3.0688,3.0637,3.0588,3.0542,3.0521,3.0536,3.0525,3.0467,3.0481,3.0493,3.0331,3.0331,3.033,0,0,3.2324,3.2225,3.1987,3.1933,3.1864,3.1655,3.1581,3.1459,3.1297,3.1232,3.107,3.0914,3.0785,3.0706,3.0575,3.0499,3.0442,3.0481,3.0499,3.0515,3.0514,3.0461,3.0474,3.0328,3.0328,3.0328,0,0,3.2282,3.2005,3.192,3.1834,3.1687,3.1445,3.1418,3.1307,3.117,3.1156,3.0942,3.0892,3.0798,3.0681,3.0678,3.0538,3.0453,3.045,3.0618,3.0639,3.0657,3.0686,3.0504,0,0,0,0,0,3.205,3.2039,3.1966,3.1922,3.1642,3.1488,3.145,3.1275,3.1219,3.1202,3.1048,3.0928,3.0635,3.0627,3.0584,3.0589,3.0302,3.0307,3.0311,3.0509,3.0532,3.0553,0,0,0,0,0,0,3.2031,3.1978,3.1965,3.1728,3.1663,3.1486,3.1352,3.1304,3.1216,3.1196,3.0962,3.092,3.0766,3.0636,3.0601,3.0609,3.0516,3.0304,3.0308,3.0311,3.0517,3.0536,3.0553,0,0,0,0,0,3.2015,3.1972,3.1571,3.1726,3.167,3.1435,3.1351,3.131,3.1238,3.1,3.0955,3.1115,3.0772,3.0729,3.0614,3.063,3.0539,3.0526,3.0306,3.0309,3.0312,3.0526,0,0,0,0,0,0,3.2003,3.1931,3.1555,3.1531,3.1717,3.1441,3.1393,3.1316,3.1044,3.1,3.1143,3.113,3.0775,3.0741,3.071,3.0647,3.0558,3.0545,3.0537,3.0309,3.0311,3.0313,0,0,0,0,0,0,3.1953,3.1913,3.1543,3.1541,3.1516,3.1448,3.1405,3.1281,3.1043,3.1201,3.1182,3.114,3.0821,3.075,3.0725,3.0539,3.0573,3.0561,3.0552,3.0547,3.0311,3.0313,0,0,0,0,0,0,3.1933,3.1898,3.1546,3.1527,3.1504,3.1223,3.1335,3.1057,3.1047,3.1216,3.104,3.1038,3.0833,3.0803,3.0736,3.0562,3.0545,3.0572,3.0564,3.0558,3.0554,0,0,0,0,0,0,0,3.1916,3.2192,3.1697,3.1515,3.1494,3.1311,3.1305,3.1298,3.1046,3.1044,3.1041,3.1039,3.0643,3.0629,3.0616,3.0581,0,0,3.0574,3.0568,0,0,0,0,0,0,0,0,3.2203,3.2195,3.1696,3.1691,3.1687,3.131,3.1305,3.13,3.1046,3.1044,3.1042,3.104,3.0639,3.0628,3.0617,0,0,0,0,0,0,0,0,0,0,0,0,0,0,0,3.1696,3.1692,0,3.131,3.1305,3.1301,3.1045,3.1044,3.1042,3.1041,3.0636,3.0627,3.0618,0,0,0,0,0,0,0,0,0,0,0,0,0,0,0,0,0,0,0,0,0,0,0,0,0,0,0,0,0,0,0,0,0,0,0,0,0,0,0,0,0,0,0,0,0,0,0,0,0,0,0,0,0,0,0,0,0,0,0,0,0,0,0,0,0,0,0,0,0]}]]]